contact:dominique.lefevre@mio.osupytheas.fr, maurice.libes@osupytheas.fr, didier.mallarino@osupytheas.fr
Project:EMSO http://www.emso-fr.org/EMSO-France
Depth: 2436.0 m
Title:EMSO Ligure Ouest : Data MII capteur MICROCAT
DateTime_Computer,Latitude,Longitude,Temperature,Conductivity,Pressure,DateTime_Instrument
DateTime_Computer,Latitude,Longitude,degC,S m-1,dbar,DateTime_Instrument
2022-05-11T00:00:24Z,42.805,6.029,13.3000,4.60034,2470.1,2022-5-11T02:02:05Z
2022-05-11T00:03:27Z,42.805,6.029,13.2998,4.60033,2470.1,2022-5-11T02:05:08Z
2022-05-11T00:06:31Z,42.805,6.029,13.3000,4.60033,2470.11,2022-5-11T02:08:11Z
2022-05-11T00:09:34Z,42.805,6.029,13.2998,4.60034,2470.147,2022-5-11T02:11:14Z
2022-05-11T00:12:37Z,42.805,6.029,13.3000,4.60034,2470.124,2022-5-11T02:14:17Z
2022-05-11T00:15:40Z,42.805,6.029,13.3000,4.60034,2470.087,2022-5-11T02:17:20Z
2022-05-11T00:18:43Z,42.805,6.029,13.3002,4.60034,2470.11,2022-5-11T02:20:24Z
2022-05-11T00:21:46Z,42.805,6.029,13.2997,4.60033,2470.133,2022-5-11T02:23:27Z
2022-05-11T00:24:49Z,42.805,6.029,13.3001,4.60034,2470.1,2022-5-11T02:26:30Z
2022-05-11T00:27:52Z,42.805,6.029,13.3004,4.60035,2470.147,2022-5-11T02:29:33Z
2022-05-11T00:30:55Z,42.805,6.029,13.3000,4.60034,2470.1,2022-5-11T02:32:36Z
2022-05-11T00:33:59Z,42.805,6.029,13.2998,4.60033,2470.133,2022-5-11T02:35:39Z
2022-05-11T00:37:02Z,42.805,6.029,13.3000,4.60035,2470.11,2022-5-11T02:38:42Z
2022-05-11T00:40:05Z,42.805,6.029,13.3000,4.60035,2470.11,2022-5-11T02:41:45Z
2022-05-11T00:43:08Z,42.805,6.029,13.3000,4.60035,2470.11,2022-5-11T02:44:49Z
2022-05-11T00:46:11Z,42.805,6.029,13.2999,4.60034,2470.087,2022-5-11T02:47:52Z
2022-05-11T00:49:14Z,42.805,6.029,13.3000,4.60033,2470.124,2022-5-11T02:50:55Z
2022-05-11T00:52:17Z,42.805,6.029,13.3000,4.60033,2470.133,2022-5-11T02:53:58Z
2022-05-11T00:55:20Z,42.805,6.029,13.3000,4.60033,2470.133,2022-5-11T02:57:01Z
2022-05-11T00:58:24Z,42.805,6.029,13.3000,4.60034,2470.124,2022-5-11T03:00:04Z
2022-05-11T01:01:27Z,42.805,6.029,13.3004,4.60034,2470.11,2022-5-11T03:03:07Z
2022-05-11T01:04:30Z,42.805,6.029,13.3005,4.60034,2470.11,2022-5-11T03:06:10Z
2022-05-11T01:07:33Z,42.805,6.029,13.3002,4.60033,2470.133,2022-5-11T03:09:13Z
2022-05-11T01:10:36Z,42.805,6.029,13.3003,4.60033,2470.147,2022-5-11T03:12:17Z
2022-05-11T01:13:39Z,42.805,6.029,13.3002,4.60033,2470.1,2022-5-11T03:15:20Z
2022-05-11T01:16:42Z,42.805,6.029,13.2998,4.60033,2470.133,2022-5-11T03:18:23Z
2022-05-11T01:19:45Z,42.805,6.029,13.3001,4.60033,2470.087,2022-5-11T03:21:26Z
2022-05-11T01:22:49Z,42.805,6.029,13.2999,4.60033,2470.124,2022-5-11T03:24:29Z
2022-05-11T01:25:52Z,42.805,6.029,13.3004,4.60033,2470.11,2022-5-11T03:27:32Z
2022-05-11T01:28:55Z,42.805,6.029,13.3000,4.60033,2470.087,2022-5-11T03:30:35Z
2022-05-11T01:31:58Z,42.805,6.029,13.3000,4.60033,2470.11,2022-5-11T03:33:38Z
2022-05-11T01:35:01Z,42.805,6.029,13.3001,4.60034,2470.124,2022-5-11T03:36:42Z
2022-05-11T01:38:04Z,42.805,6.029,13.3001,4.60033,2470.133,2022-5-11T03:39:45Z
2022-05-11T01:41:07Z,42.805,6.029,13.3003,4.60035,2470.1,2022-5-11T03:42:48Z
2022-05-11T01:44:10Z,42.805,6.029,13.3002,4.60034,2470.133,2022-5-11T03:45:51Z
2022-05-11T01:47:14Z,42.805,6.029,13.3001,4.60035,2470.11,2022-5-11T03:48:54Z
2022-05-11T01:50:17Z,42.805,6.029,13.3002,4.60034,2470.11,2022-5-11T03:51:57Z
2022-05-11T01:53:20Z,42.805,6.029,13.3003,4.60036,2470.11,2022-5-11T03:55:00Z
2022-05-11T01:56:23Z,42.805,6.029,13.3002,4.60035,2470.147,2022-5-11T03:58:03Z
2022-05-11T01:59:26Z,42.805,6.029,13.3001,4.60034,2470.11,2022-5-11T04:01:07Z
2022-05-11T02:02:29Z,42.805,6.029,13.3002,4.60035,2470.124,2022-5-11T04:04:10Z
2022-05-11T02:05:32Z,42.805,6.029,13.3004,4.60035,2470.133,2022-5-11T04:07:13Z
2022-05-11T02:08:35Z,42.805,6.029,13.3003,4.60035,2470.11,2022-5-11T04:10:16Z
2022-05-11T02:11:38Z,42.805,6.029,13.3003,4.60035,2470.133,2022-5-11T04:13:19Z
2022-05-11T02:14:42Z,42.805,6.029,13.3001,4.60034,2470.124,2022-5-11T04:16:22Z
2022-05-11T02:17:45Z,42.805,6.029,13.3002,4.60035,2470.133,2022-5-11T04:19:25Z
2022-05-11T02:20:48Z,42.805,6.029,13.3000,4.60035,2470.133,2022-5-11T04:22:28Z
2022-05-11T02:23:51Z,42.805,6.029,13.3001,4.60035,2470.124,2022-5-11T04:25:32Z
2022-05-11T02:26:54Z,42.805,6.029,13.3001,4.60035,2470.063,2022-5-11T04:28:35Z
2022-05-11T02:29:57Z,42.805,6.029,13.3000,4.60035,2470.124,2022-5-11T04:31:38Z
2022-05-11T02:33:00Z,42.805,6.029,13.3006,4.60036,2470.147,2022-5-11T04:34:41Z
2022-05-11T02:36:03Z,42.805,6.029,13.3005,4.60036,2470.147,2022-5-11T04:37:44Z
2022-05-11T02:39:07Z,42.805,6.029,13.3005,4.60036,2470.124,2022-5-11T04:40:47Z
2022-05-11T02:42:10Z,42.805,6.029,13.3002,4.60036,2470.133,2022-5-11T04:43:50Z
2022-05-11T02:45:13Z,42.805,6.029,13.3004,4.60036,2470.133,2022-5-11T04:46:53Z
2022-05-11T02:48:16Z,42.805,6.029,13.3000,4.60037,2470.1,2022-5-11T04:49:56Z
2022-05-11T02:51:19Z,42.805,6.029,13.3003,4.60037,2470.133,2022-5-11T04:53:00Z
2022-05-11T02:54:22Z,42.805,6.029,13.3005,4.60037,2470.156,2022-5-11T04:56:03Z
2022-05-11T02:57:25Z,42.805,6.029,13.3003,4.60036,2470.11,2022-5-11T04:59:06Z
2022-05-11T03:00:28Z,42.805,6.029,13.3002,4.60037,2470.11,2022-5-11T05:02:09Z
2022-05-11T03:03:32Z,42.805,6.029,13.3002,4.60036,2470.11,2022-5-11T05:05:12Z
2022-05-11T03:06:35Z,42.805,6.029,13.3006,4.60036,2470.1,2022-5-11T05:08:15Z
2022-05-11T03:09:38Z,42.805,6.029,13.3003,4.60037,2470.124,2022-5-11T05:11:18Z
2022-05-11T03:12:41Z,42.805,6.029,13.3001,4.60036,2470.11,2022-5-11T05:14:21Z
2022-05-11T03:15:44Z,42.805,6.029,13.3005,4.60036,2470.147,2022-5-11T05:17:25Z
2022-05-11T03:18:47Z,42.805,6.029,13.3006,4.60036,2470.11,2022-5-11T05:20:28Z
2022-05-11T03:21:50Z,42.805,6.029,13.3004,4.60036,2470.087,2022-5-11T05:23:31Z
2022-05-11T03:24:53Z,42.805,6.029,13.3000,4.60036,2470.11,2022-5-11T05:26:34Z
2022-05-11T03:27:57Z,42.805,6.029,13.3006,4.60038,2470.11,2022-5-11T05:29:37Z
2022-05-11T03:31:00Z,42.805,6.029,13.3005,4.60036,2470.11,2022-5-11T05:32:40Z
2022-05-11T03:34:03Z,42.805,6.029,13.3000,4.60036,2470.133,2022-5-11T05:35:43Z
2022-05-11T03:37:06Z,42.805,6.029,13.3004,4.60036,2470.11,2022-5-11T05:38:46Z
2022-05-11T03:40:09Z,42.805,6.029,13.3000,4.60037,2470.133,2022-5-11T05:41:50Z
2022-05-11T03:43:12Z,42.805,6.029,13.3004,4.60038,2470.087,2022-5-11T05:44:53Z
2022-05-11T03:46:15Z,42.805,6.029,13.2998,4.60036,2470.087,2022-5-11T05:47:56Z
2022-05-11T03:49:18Z,42.805,6.029,13.3004,4.60036,2470.124,2022-5-11T05:50:59Z
2022-05-11T03:52:22Z,42.805,6.029,13.3001,4.60036,2470.087,2022-5-11T05:54:02Z
2022-05-11T03:55:25Z,42.805,6.029,13.3001,4.60037,2470.11,2022-5-11T05:57:05Z
2022-05-11T03:58:28Z,42.805,6.029,13.3002,4.60036,2470.147,2022-5-11T06:00:08Z
2022-05-11T04:01:31Z,42.805,6.029,13.3003,4.60036,2470.133,2022-5-11T06:03:11Z
2022-05-11T04:04:34Z,42.805,6.029,13.3005,4.60036,2470.11,2022-5-11T06:06:15Z
2022-05-11T04:07:37Z,42.805,6.029,13.3004,4.60036,2470.147,2022-5-11T06:09:18Z
2022-05-11T04:10:40Z,42.805,6.029,13.3004,4.60036,2470.087,2022-5-11T06:12:21Z
2022-05-11T04:13:43Z,42.805,6.029,13.3003,4.60036,2470.1,2022-5-11T06:15:24Z
2022-05-11T04:16:46Z,42.805,6.029,13.3005,4.60036,2470.087,2022-5-11T06:18:27Z
2022-05-11T04:19:50Z,42.805,6.029,13.3003,4.60037,2470.087,2022-5-11T06:21:30Z
2022-05-11T04:22:53Z,42.805,6.029,13.3002,4.60036,2470.1,2022-5-11T06:24:33Z
2022-05-11T04:25:56Z,42.805,6.029,13.3001,4.60036,2470.087,2022-5-11T06:27:36Z
2022-05-11T04:28:59Z,42.805,6.029,13.3001,4.60036,2470.087,2022-5-11T06:30:39Z
2022-05-11T04:32:02Z,42.805,6.029,13.3006,4.60038,2470.087,2022-5-11T06:33:43Z
2022-05-11T04:35:05Z,42.805,6.029,13.3000,4.60036,2470.087,2022-5-11T06:36:46Z
2022-05-11T04:38:08Z,42.805,6.029,13.3004,4.60036,2470.11,2022-5-11T06:39:49Z
2022-05-11T04:41:11Z,42.805,6.029,13.3003,4.60036,2470.087,2022-5-11T06:42:52Z
2022-05-11T04:44:15Z,42.805,6.029,13.3004,4.60035,2470.087,2022-5-11T06:45:55Z
2022-05-11T04:47:18Z,42.805,6.029,13.3004,4.60036,2470.11,2022-5-11T06:48:58Z
2022-05-11T04:50:21Z,42.805,6.029,13.3003,4.60037,2470.124,2022-5-11T06:52:01Z
2022-05-11T04:53:24Z,42.805,6.029,13.3002,4.60038,2470.087,2022-5-11T06:55:04Z
2022-05-11T04:56:27Z,42.805,6.029,13.3003,4.60036,2470.087,2022-5-11T06:58:08Z
2022-05-11T04:59:30Z,42.805,6.029,13.3006,4.60036,2470.087,2022-5-11T07:01:11Z
2022-05-11T05:02:33Z,42.805,6.029,13.3005,4.60039,2470.087,2022-5-11T07:04:14Z
2022-05-11T05:05:36Z,42.805,6.029,13.3004,4.60038,2470.11,2022-5-11T07:07:17Z
2022-05-11T05:08:39Z,42.805,6.029,13.3006,4.60038,2470.087,2022-5-11T07:10:20Z
2022-05-11T05:11:43Z,42.805,6.029,13.3008,4.60038,2470.063,2022-5-11T07:13:23Z
2022-05-11T05:14:46Z,42.805,6.029,13.3001,4.60036,2470.063,2022-5-11T07:16:26Z
2022-05-11T05:17:49Z,42.805,6.029,13.3002,4.60037,2470.026,2022-5-11T07:19:29Z
2022-05-11T05:20:52Z,42.805,6.029,13.2999,4.60036,2470.1,2022-5-11T07:22:33Z
2022-05-11T05:23:55Z,42.805,6.029,13.3003,4.60036,2470.063,2022-5-11T07:25:36Z
2022-05-11T05:26:58Z,42.805,6.029,13.2999,4.60036,2470.087,2022-5-11T07:28:39Z
2022-05-11T05:30:01Z,42.805,6.029,13.3004,4.60035,2470.04,2022-5-11T07:31:42Z
2022-05-11T05:33:04Z,42.805,6.029,13.3001,4.60035,2470.087,2022-5-11T07:34:45Z
2022-05-11T05:36:08Z,42.805,6.029,13.3003,4.60036,2470.04,2022-5-11T07:37:48Z
2022-05-11T05:39:11Z,42.805,6.029,13.3004,4.60035,2470.04,2022-5-11T07:40:51Z
2022-05-11T05:42:14Z,42.805,6.029,13.3003,4.60036,2470.063,2022-5-11T07:43:54Z
2022-05-11T05:45:17Z,42.805,6.029,13.3000,4.60036,2470.087,2022-5-11T07:46:57Z
2022-05-11T05:48:20Z,42.805,6.029,13.3004,4.60036,2470.04,2022-5-11T07:50:01Z
2022-05-11T05:51:23Z,42.805,6.029,13.3001,4.60037,2470.04,2022-5-11T07:53:04Z
2022-05-11T05:54:26Z,42.805,6.029,13.3005,4.60037,2470.063,2022-5-11T07:56:07Z
2022-05-11T05:57:29Z,42.805,6.029,13.3001,4.60036,2470.077,2022-5-11T07:59:10Z
2022-05-11T06:00:33Z,42.805,6.029,13.3006,4.60036,2470.053,2022-5-11T08:02:13Z
2022-05-11T06:03:36Z,42.805,6.029,13.3004,4.60036,2470.063,2022-5-11T08:05:16Z
2022-05-11T06:06:39Z,42.805,6.029,13.3001,4.60036,2470.03,2022-5-11T08:08:19Z
2022-05-11T06:09:42Z,42.805,6.029,13.3004,4.60036,2470.053,2022-5-11T08:11:22Z
2022-05-11T06:12:45Z,42.805,6.029,13.3000,4.60036,2470.017,2022-5-11T08:14:26Z
2022-05-11T06:15:48Z,42.805,6.029,13.3000,4.60036,2470.04,2022-5-11T08:17:29Z
2022-05-11T06:18:51Z,42.805,6.029,13.3003,4.60036,2470.04,2022-5-11T08:20:32Z
2022-05-11T06:21:54Z,42.805,6.029,13.3003,4.60036,2470.04,2022-5-11T08:23:35Z
2022-05-11T06:24:57Z,42.805,6.029,13.2998,4.60035,2470.017,2022-5-11T08:26:38Z
2022-05-11T06:28:01Z,42.805,6.029,13.3004,4.60035,2470.017,2022-5-11T08:29:41Z
2022-05-11T06:31:04Z,42.805,6.029,13.3007,4.60035,2470.04,2022-5-11T08:32:44Z
2022-05-11T06:34:07Z,42.805,6.029,13.2998,4.60035,2470.04,2022-5-11T08:35:47Z
2022-05-11T06:37:10Z,42.805,6.029,13.3000,4.60035,2470.007,2022-5-11T08:38:51Z
2022-05-11T06:40:13Z,42.805,6.029,13.3000,4.60035,2470.017,2022-5-11T08:41:54Z
2022-05-11T06:43:16Z,42.805,6.029,13.2999,4.60036,2470.017,2022-5-11T08:44:57Z
2022-05-11T06:46:19Z,42.805,6.029,13.3000,4.60035,2470.03,2022-5-11T08:48:00Z
2022-05-11T06:49:22Z,42.805,6.029,13.3001,4.60035,2470.007,2022-5-11T08:51:03Z
2022-05-11T06:52:26Z,42.805,6.029,13.3002,4.60034,2470.017,2022-5-11T08:54:06Z
2022-05-11T06:55:29Z,42.805,6.029,13.3004,4.60037,2470.007,2022-5-11T08:57:09Z
2022-05-11T06:58:32Z,42.805,6.029,13.3004,4.60035,2470.007,2022-5-11T09:00:12Z
2022-05-11T07:01:35Z,42.805,6.029,13.3003,4.60034,2469.984,2022-5-11T09:03:16Z
2022-05-11T07:04:38Z,42.805,6.029,13.3004,4.60036,2470.007,2022-5-11T09:06:19Z
2022-05-11T07:07:41Z,42.805,6.029,13.2999,4.60035,2469.993,2022-5-11T09:09:22Z
2022-05-11T07:10:44Z,42.805,6.029,13.2998,4.60034,2469.993,2022-5-11T09:12:25Z
2022-05-11T07:13:47Z,42.805,6.029,13.3000,4.60036,2469.993,2022-5-11T09:15:28Z
2022-05-11T07:16:51Z,42.805,6.029,13.2998,4.60036,2469.97,2022-5-11T09:18:31Z
2022-05-11T07:19:54Z,42.805,6.029,13.3000,4.60034,2469.96,2022-5-11T09:21:34Z
2022-05-11T07:22:57Z,42.805,6.029,13.3000,4.60035,2469.923,2022-5-11T09:24:37Z
2022-05-11T07:26:00Z,42.805,6.029,13.3003,4.60034,2470.017,2022-5-11T09:27:40Z
2022-05-11T07:29:03Z,42.805,6.029,13.2997,4.60034,2469.947,2022-5-11T09:30:44Z
2022-05-11T07:32:06Z,42.805,6.029,13.3000,4.60033,2469.97,2022-5-11T09:33:47Z
2022-05-11T07:35:09Z,42.805,6.029,13.2998,4.60035,2469.947,2022-5-11T09:36:50Z
2022-05-11T07:38:12Z,42.805,6.029,13.3001,4.60036,2469.97,2022-5-11T09:39:53Z
2022-05-11T07:41:16Z,42.805,6.029,13.3001,4.60033,2469.96,2022-5-11T09:42:56Z
2022-05-11T07:44:19Z,42.805,6.029,13.3005,4.60034,2469.97,2022-5-11T09:45:59Z
2022-05-11T07:47:22Z,42.805,6.029,13.3000,4.60034,2469.984,2022-5-11T09:49:02Z
2022-05-11T07:50:25Z,42.805,6.029,13.3004,4.60035,2469.96,2022-5-11T09:52:05Z
2022-05-11T07:53:28Z,42.805,6.029,13.2998,4.60034,2469.96,2022-5-11T09:55:09Z
2022-05-11T07:56:31Z,42.805,6.029,13.3002,4.60036,2469.97,2022-5-11T09:58:12Z
2022-05-11T07:59:34Z,42.805,6.029,13.3000,4.60036,2470.017,2022-5-11T10:01:15Z
2022-05-11T08:02:37Z,42.805,6.029,13.3003,4.60035,2469.947,2022-5-11T10:04:18Z
2022-05-11T08:05:40Z,42.805,6.029,13.3004,4.60036,2469.96,2022-5-11T10:07:21Z
2022-05-11T08:08:44Z,42.805,6.029,13.3000,4.60034,2469.96,2022-5-11T10:10:24Z
2022-05-11T08:11:47Z,42.805,6.029,13.3003,4.60034,2469.923,2022-5-11T10:13:27Z
2022-05-11T08:14:50Z,42.805,6.029,13.3003,4.60034,2469.914,2022-5-11T10:16:30Z
2022-05-11T08:17:53Z,42.805,6.029,13.3003,4.60036,2469.96,2022-5-11T10:19:34Z
2022-05-11T08:20:56Z,42.805,6.029,13.3001,4.60036,2469.923,2022-5-11T10:22:37Z
2022-05-11T08:23:59Z,42.805,6.029,13.3004,4.60034,2469.937,2022-5-11T10:25:40Z
2022-05-11T08:27:02Z,42.805,6.029,13.3004,4.60036,2469.947,2022-5-11T10:28:43Z
2022-05-11T08:30:06Z,42.805,6.029,13.2998,4.60034,2469.923,2022-5-11T10:31:46Z
2022-05-11T08:33:09Z,42.805,6.029,13.3000,4.60034,2469.96,2022-5-11T10:34:49Z
2022-05-11T08:36:12Z,42.805,6.029,13.2998,4.60034,2469.923,2022-5-11T10:37:52Z
2022-05-11T08:39:15Z,42.805,6.029,13.3001,4.60034,2469.914,2022-5-11T10:40:55Z
2022-05-11T08:42:18Z,42.805,6.029,13.3000,4.60035,2469.9,2022-5-11T10:43:59Z
2022-05-11T08:45:21Z,42.805,6.029,13.3002,4.60034,2469.923,2022-5-11T10:47:02Z
2022-05-11T08:48:24Z,42.805,6.029,13.3002,4.60034,2469.947,2022-5-11T10:50:05Z
2022-05-11T08:51:27Z,42.805,6.029,13.3000,4.60035,2469.9,2022-5-11T10:53:08Z
2022-05-11T08:54:30Z,42.805,6.029,13.3000,4.60035,2469.923,2022-5-11T10:56:11Z
2022-05-11T08:57:34Z,42.805,6.029,13.3000,4.60035,2469.914,2022-5-11T10:59:14Z
2022-05-11T09:00:37Z,42.805,6.029,13.3003,4.60036,2469.947,2022-5-11T11:02:17Z
2022-05-11T09:03:40Z,42.805,6.029,13.3000,4.60034,2469.937,2022-5-11T11:05:20Z
2022-05-11T09:06:43Z,42.805,6.029,13.3002,4.60034,2469.9,2022-5-11T11:08:24Z
2022-05-11T09:09:46Z,42.805,6.029,13.3001,4.60035,2469.909,2022-5-11T11:11:27Z
2022-05-11T09:12:49Z,42.805,6.029,13.3003,4.60035,2469.9,2022-5-11T11:14:30Z
2022-05-11T09:15:52Z,42.805,6.029,13.3005,4.60035,2469.9,2022-5-11T11:17:33Z
2022-05-11T09:18:55Z,42.805,6.029,13.3004,4.60034,2469.914,2022-5-11T11:20:36Z
2022-05-11T09:21:59Z,42.805,6.029,13.3000,4.60034,2469.9,2022-5-11T11:23:39Z
2022-05-11T09:25:02Z,42.805,6.029,13.3000,4.60035,2469.914,2022-5-11T11:26:42Z
2022-05-11T09:28:05Z,42.805,6.029,13.3001,4.60035,2469.9,2022-5-11T11:29:45Z
2022-05-11T09:31:08Z,42.805,6.029,13.2998,4.60035,2469.89,2022-5-11T11:32:49Z
2022-05-11T09:34:11Z,42.805,6.029,13.2999,4.60035,2469.876,2022-5-11T11:35:52Z
2022-05-11T09:37:14Z,42.805,6.029,13.3001,4.60035,2469.89,2022-5-11T11:38:55Z
2022-05-11T09:40:17Z,42.805,6.029,13.3003,4.60035,2469.914,2022-5-11T11:41:58Z
2022-05-11T09:43:20Z,42.805,6.029,13.3004,4.60034,2469.89,2022-5-11T11:45:01Z
2022-05-11T09:46:24Z,42.805,6.029,13.2999,4.60034,2469.9,2022-5-11T11:48:04Z
2022-05-11T09:49:27Z,42.805,6.029,13.3004,4.60034,2469.876,2022-5-11T11:51:07Z
2022-05-11T09:52:30Z,42.805,6.029,13.3004,4.60035,2469.9,2022-5-11T11:54:10Z
2022-05-11T09:55:33Z,42.805,6.029,13.3001,4.60035,2469.9,2022-5-11T11:57:14Z
2022-05-11T09:58:36Z,42.805,6.029,13.3003,4.60034,2469.9,2022-5-11T12:00:17Z
2022-05-11T10:01:39Z,42.805,6.029,13.3001,4.60035,2469.89,2022-5-11T12:03:20Z
2022-05-11T10:04:42Z,42.805,6.029,13.3001,4.60035,2469.9,2022-5-11T12:06:23Z
2022-05-11T10:07:45Z,42.805,6.029,13.3004,4.60034,2469.83,2022-5-11T12:09:26Z
2022-05-11T10:10:49Z,42.805,6.029,13.3003,4.60034,2469.89,2022-5-11T12:12:29Z
2022-05-11T10:13:52Z,42.805,6.029,13.2998,4.60034,2469.9,2022-5-11T12:15:32Z
2022-05-11T10:16:55Z,42.805,6.029,13.3000,4.60037,2469.876,2022-5-11T12:18:35Z
2022-05-11T10:19:58Z,42.805,6.029,13.3003,4.60033,2469.89,2022-5-11T12:21:39Z
2022-05-11T10:23:01Z,42.805,6.029,13.3001,4.60033,2469.914,2022-5-11T12:24:42Z
2022-05-11T10:26:04Z,42.805,6.029,13.3000,4.60033,2469.853,2022-5-11T12:27:45Z
2022-05-11T10:29:07Z,42.805,6.029,13.3002,4.60035,2469.876,2022-5-11T12:30:48Z
2022-05-11T10:32:10Z,42.805,6.029,13.3000,4.60033,2469.853,2022-5-11T12:33:51Z
2022-05-11T10:35:14Z,42.805,6.029,13.3001,4.60034,2469.876,2022-5-11T12:36:54Z
2022-05-11T10:38:17Z,42.805,6.029,13.3001,4.60034,2469.89,2022-5-11T12:39:57Z
2022-05-11T10:41:20Z,42.805,6.029,13.3003,4.60034,2469.853,2022-5-11T12:43:00Z
2022-05-11T10:44:23Z,42.805,6.029,13.2998,4.60034,2469.89,2022-5-11T12:46:04Z
2022-05-11T10:47:26Z,42.805,6.029,13.3004,4.60034,2469.876,2022-5-11T12:49:07Z
2022-05-11T10:50:29Z,42.805,6.029,13.3000,4.60034,2469.876,2022-5-11T12:52:10Z
2022-05-11T10:53:32Z,42.805,6.029,13.3004,4.60034,2469.876,2022-5-11T12:55:13Z
2022-05-11T10:56:35Z,42.805,6.029,13.3002,4.60034,2469.83,2022-5-11T12:58:16Z
2022-05-11T10:59:39Z,42.805,6.029,13.3004,4.60035,2469.853,2022-5-11T13:01:19Z
2022-05-11T11:02:42Z,42.805,6.029,13.3003,4.60035,2469.853,2022-5-11T13:04:22Z
2022-05-11T11:05:45Z,42.805,6.029,13.3000,4.60034,2469.876,2022-5-11T13:07:25Z
2022-05-11T11:08:48Z,42.805,6.029,13.3004,4.60036,2469.853,2022-5-11T13:10:29Z
2022-05-11T11:11:51Z,42.805,6.029,13.3000,4.60035,2469.853,2022-5-11T13:13:32Z
2022-05-11T11:14:54Z,42.805,6.029,13.3001,4.60034,2469.867,2022-5-11T13:16:35Z
2022-05-11T11:17:57Z,42.805,6.029,13.3001,4.60034,2469.853,2022-5-11T13:19:38Z
2022-05-11T11:21:00Z,42.805,6.029,13.3003,4.60034,2469.83,2022-5-11T13:22:41Z
2022-05-11T11:24:04Z,42.805,6.029,13.2999,4.60033,2469.853,2022-5-11T13:25:44Z
2022-05-11T11:27:07Z,42.805,6.029,13.3000,4.60035,2469.867,2022-5-11T13:28:47Z
2022-05-11T11:30:10Z,42.805,6.029,13.3004,4.60033,2469.853,2022-5-11T13:31:50Z
2022-05-11T11:33:13Z,42.805,6.029,13.2999,4.60034,2469.853,2022-5-11T13:34:54Z
2022-05-11T11:36:16Z,42.805,6.029,13.3002,4.60034,2469.83,2022-5-11T13:37:57Z
2022-05-11T11:39:19Z,42.805,6.029,13.3001,4.60035,2469.89,2022-5-11T13:41:00Z
2022-05-11T11:42:22Z,42.805,6.029,13.3001,4.60034,2469.867,2022-5-11T13:44:03Z
2022-05-11T11:45:25Z,42.805,6.029,13.3001,4.60035,2469.853,2022-5-11T13:47:06Z
2022-05-11T11:48:29Z,42.805,6.029,13.3000,4.60034,2469.867,2022-5-11T13:50:09Z
2022-05-11T11:51:32Z,42.805,6.029,13.3000,4.60034,2469.89,2022-5-11T13:53:12Z
2022-05-11T11:54:35Z,42.805,6.029,13.3006,4.60034,2469.89,2022-5-11T13:56:15Z
2022-05-11T11:57:38Z,42.805,6.029,13.2999,4.60033,2469.853,2022-5-11T13:59:19Z
2022-05-11T12:00:41Z,42.805,6.029,13.3005,4.60034,2469.806,2022-5-11T14:02:22Z
2022-05-11T12:03:44Z,42.805,6.029,13.3005,4.60033,2469.876,2022-5-11T14:05:25Z
2022-05-11T12:06:47Z,42.805,6.029,13.3003,4.60035,2469.876,2022-5-11T14:08:28Z
2022-05-11T12:09:50Z,42.805,6.029,13.3000,4.60035,2469.89,2022-5-11T14:11:31Z
2022-05-11T12:12:54Z,42.805,6.029,13.3003,4.60034,2469.844,2022-5-11T14:14:34Z
2022-05-11T12:15:57Z,42.805,6.029,13.3000,4.60034,2469.853,2022-5-11T14:17:37Z
2022-05-11T12:19:00Z,42.805,6.029,13.2997,4.60035,2469.853,2022-5-11T14:20:40Z
2022-05-11T12:22:03Z,42.805,6.029,13.3004,4.60034,2469.853,2022-5-11T14:23:44Z
2022-05-11T12:25:06Z,42.805,6.029,13.3002,4.60034,2469.876,2022-5-11T14:26:47Z
2022-05-11T12:28:09Z,42.805,6.029,13.3001,4.60034,2469.853,2022-5-11T14:29:50Z
2022-05-11T12:31:12Z,42.805,6.029,13.2999,4.60034,2469.853,2022-5-11T14:32:53Z
2022-05-11T12:34:16Z,42.805,6.029,13.2998,4.60036,2469.89,2022-5-11T14:35:56Z
2022-05-11T12:37:19Z,42.805,6.029,13.3003,4.60035,2469.839,2022-5-11T14:38:59Z
2022-05-11T12:40:22Z,42.805,6.029,13.3000,4.60034,2469.89,2022-5-11T14:42:02Z
2022-05-11T12:43:25Z,42.805,6.029,13.3000,4.60034,2469.9,2022-5-11T14:45:05Z
2022-05-11T12:46:28Z,42.805,6.029,13.3001,4.60035,2469.876,2022-5-11T14:48:09Z
2022-05-11T12:49:31Z,42.805,6.029,13.3005,4.60036,2469.89,2022-5-11T14:51:12Z
2022-05-11T12:52:34Z,42.805,6.029,13.3002,4.60034,2469.853,2022-5-11T14:54:15Z
2022-05-11T12:55:37Z,42.805,6.029,13.3002,4.60035,2469.853,2022-5-11T14:57:18Z
2022-05-11T12:58:41Z,42.805,6.029,13.3003,4.60034,2469.89,2022-5-11T15:00:21Z
2022-05-11T13:01:44Z,42.805,6.029,13.3000,4.60034,2469.821,2022-5-11T15:03:24Z
2022-05-11T13:04:47Z,42.805,6.029,13.3002,4.60034,2469.876,2022-5-11T15:06:27Z
2022-05-11T13:07:50Z,42.805,6.029,13.3004,4.60034,2469.89,2022-5-11T15:09:30Z
2022-05-11T13:10:53Z,42.805,6.029,13.3005,4.60034,2469.876,2022-5-11T15:12:34Z
2022-05-11T13:13:56Z,42.805,6.029,13.3000,4.60034,2469.853,2022-5-11T15:15:37Z
2022-05-11T13:16:59Z,42.805,6.029,13.3000,4.60035,2469.853,2022-5-11T15:18:40Z
2022-05-11T13:20:02Z,42.805,6.029,13.3004,4.60034,2469.876,2022-5-11T15:21:43Z
2022-05-11T13:23:06Z,42.805,6.029,13.2999,4.60036,2469.853,2022-5-11T15:24:46Z
2022-05-11T13:26:09Z,42.805,6.029,13.3002,4.60036,2469.853,2022-5-11T15:27:49Z
2022-05-11T13:29:12Z,42.805,6.029,13.2998,4.60035,2469.876,2022-5-11T15:30:52Z
2022-05-11T13:32:15Z,42.805,6.029,13.3005,4.60035,2469.853,2022-5-11T15:33:55Z
2022-05-11T13:35:18Z,42.805,6.029,13.3001,4.60035,2469.853,2022-5-11T15:36:59Z
2022-05-11T13:38:21Z,42.805,6.029,13.3000,4.60035,2469.867,2022-5-11T15:40:02Z
2022-05-11T13:41:24Z,42.805,6.029,13.3003,4.60036,2469.853,2022-5-11T15:43:05Z
2022-05-11T13:44:27Z,42.805,6.029,13.3000,4.60035,2469.89,2022-5-11T15:46:08Z
2022-05-11T13:47:31Z,42.805,6.029,13.3000,4.60035,2469.876,2022-5-11T15:49:11Z
2022-05-11T13:50:34Z,42.805,6.029,13.3004,4.60034,2469.839,2022-5-11T15:52:14Z
2022-05-11T13:53:37Z,42.805,6.029,13.3002,4.60034,2469.853,2022-5-11T15:55:17Z
2022-05-11T13:56:40Z,42.805,6.029,13.3000,4.60035,2469.863,2022-5-11T15:58:20Z
2022-05-11T13:59:43Z,42.805,6.029,13.3004,4.60036,2469.844,2022-5-11T16:01:24Z
2022-05-11T14:02:46Z,42.805,6.029,13.3000,4.60034,2469.9,2022-5-11T16:04:27Z
2022-05-11T14:05:49Z,42.805,6.029,13.3003,4.60036,2469.867,2022-5-11T16:07:30Z
2022-05-11T14:08:52Z,42.805,6.029,13.3000,4.60035,2469.9,2022-5-11T16:10:33Z
2022-05-11T14:11:56Z,42.805,6.029,13.3002,4.60034,2469.9,2022-5-11T16:13:36Z
2022-05-11T14:14:59Z,42.805,6.029,13.3002,4.60035,2469.853,2022-5-11T16:16:39Z
2022-05-11T14:18:02Z,42.805,6.029,13.3004,4.60034,2469.9,2022-5-11T16:19:42Z
2022-05-11T14:21:05Z,42.805,6.029,13.3000,4.60034,2469.853,2022-5-11T16:22:45Z
2022-05-11T14:24:08Z,42.805,6.029,13.2999,4.60035,2469.876,2022-5-11T16:25:49Z
2022-05-11T14:27:11Z,42.805,6.029,13.3003,4.60034,2469.876,2022-5-11T16:28:52Z
2022-05-11T14:30:14Z,42.805,6.029,13.3002,4.60035,2469.876,2022-5-11T16:31:55Z
2022-05-11T14:33:17Z,42.805,6.029,13.3001,4.60035,2469.914,2022-5-11T16:34:58Z
2022-05-11T14:36:21Z,42.805,6.029,13.3004,4.60034,2469.876,2022-5-11T16:38:01Z
2022-05-11T14:39:24Z,42.805,6.029,13.3006,4.60036,2469.89,2022-5-11T16:41:04Z
2022-05-11T14:42:27Z,42.805,6.029,13.3002,4.60036,2469.876,2022-5-11T16:44:07Z
2022-05-11T14:45:30Z,42.805,6.029,13.3002,4.60035,2469.89,2022-5-11T16:47:11Z
2022-05-11T14:48:33Z,42.805,6.029,13.3004,4.60035,2469.876,2022-5-11T16:50:14Z
2022-05-11T14:51:36Z,42.805,6.029,13.3004,4.60036,2469.9,2022-5-11T16:53:17Z
2022-05-11T14:54:39Z,42.805,6.029,13.2999,4.60036,2469.9,2022-5-11T16:56:20Z
2022-05-11T14:57:42Z,42.805,6.029,13.3004,4.60036,2469.9,2022-5-11T16:59:23Z
2022-05-11T15:00:46Z,42.805,6.029,13.3006,4.60035,2469.89,2022-5-11T17:02:26Z
2022-05-11T15:03:49Z,42.805,6.029,13.3000,4.60035,2469.9,2022-5-11T17:05:29Z
2022-05-11T15:06:52Z,42.805,6.029,13.3005,4.60035,2469.867,2022-5-11T17:08:32Z
2022-05-11T15:09:55Z,42.805,6.029,13.2999,4.60035,2469.853,2022-5-11T17:11:35Z
2022-05-11T15:12:58Z,42.805,6.029,13.3002,4.60035,2469.89,2022-5-11T17:14:39Z